Location: Cantaing
(50.1487°N, 3.1675°E)
Time: 10:21:06
(UTC+00:00)

Resurs 01 Rocket - Pass Details

Date: 14 January 2026
Orbit: 627 x 635 km, 97.7° (Epoch: 11 February)

Event Time Altitude Azimuth Distance (km) Brightness Sun altitude
Rises 06:52:24 0° 23° (NNE) 2,933 5.0 -7.7°
Reaches altitude 10° 06:54:57 10° 37° (NE) 2,021 4.4 -7.3°
Maximum altitude 06:58:35 25° 93° (E) 1,286 4.2 -6.8°
Drops below altitude 10° 07:02:12 10° 149° (SSE) 2,011 5.2 -6.3°
Sets 07:04:43 0° 162° (SSE) 2,915 5.7 -5.9°
